NIEUW!!! Volg onze weer- en natuurfoto's op Instagram @ weerstationmaaseik.be

WS Maaseik 1 Meer informatie WS Maaseik 1


WS Maaseik 2 Meer informatie WS Maaseik 2


Regen radar Meer informatie rain snow radar


Bezoek onze andere website:

Vorige versie
weerstation Maaseik


Bezoek ook eens deze sites:

Weerstation Geleen



Het weer levert geen direct gevaar op.    Er zijn geen waarschuwingen afgegeven.

15 daagse weersverwachting Barcelona (ES)

  • Overzicht
  • Per uur
  • 15 dagen
  • Extra
  • Vergelijk
  • Kaarten
  • Dagkaart
  • Meer »
  • Info
  • Statistieken
  • Directe link
    Temp 6h Neerslag Wind  
 07:53     17:24    Daglengte: 9:31 Vandaag
13:00
16°
 
3
19:00
15°
 
2
 07:55     17:24    Daglengte: 9:29 Morgen
01:00
14°
3.9 mm
3
07:00
14°
10.5 mm
4
13:00
16°
17.3 mm
5
warningclass
19:00
16°
12.2 mm
6
warningclass
 07:56     17:23    Daglengte: 9:27 Vrijdag 27 Nov
01:00
15°
5.8 mm
6
warningclass
07:00
15°
14.5 mm
6
13:00
15°
16.5 mm
9
19:00
15°
17.1 mm
8
warningclass
 07:57     17:23    Daglengte: 9:26 Zaterdag 28 Nov
01:00
14°
30.0 mm
6
warningclass
07:00
14°
14.9 mm
7
Locatie info
Region: Cataluña
Latitude: 41.3856°N
Longitude: 2.1687°E
47 masl
Postcode: 08001
Temp/Neerslag /Baro Onweer/Dauwpunt
    Temp Baro 1h Neerslag Dauwpunt Wind UV Bewolking  
 07:53     17:24    Daglengte: 9:31 Vandaag
10:00
14°
1018.7 hPa
48%
10.6°
3
Windvlaag: -1.3 m/s
30%
11:00
15°
1018.6 hPa
74%
11.0°
3
Windvlaag: -1.2 m/s
17%
12:00
16°
1018.3 hPa
26%
11.3°
3
Windvlaag: -1.4 m/s
19%
13:00
16°
1017.6 hPa
23%
11.3°
3
Windvlaag: -1.4 m/s
35%
14:00
16°
1017.1 hPa
23%
11.2°
3
Windvlaag: -0.2 m/s
48%
15:00
16°
1016.8 hPa
21%
11.2°
3
Windvlaag: 0.8 m/s
54%
16:00
16°
1016.5 hPa
21%
11.4°
3
Windvlaag: -0.2 m/s
55%
17:00
16°
1016.4 hPa
20%
11.6°
2
Windvlaag: -0.7 m/s
45%
18:00
15°
1016.7 hPa
22%
12.0°
2
Windvlaag: -0.7 m/s
39%
19:00
15°
1016.9 hPa
74%
12.2°
2
Windvlaag: -0.5 m/s
63%
20:00
15°
1017.2 hPa 1.0 mm
81%
12.0°
2
Windvlaag: -0.6 m/s
55%
21:00
14°
1017.3 hPa 1.0 mm
39%
11.9°
3
Windvlaag: -0.7 m/s
53%
22:00
14°
1017.6 hPa
72%
11.7°
3
Windvlaag: -0.6 m/s
46%
23:00
14°
1017.6 hPa
73%
12.0°
3
Windvlaag: -0.9 m/s
37%
 07:55     17:24    Daglengte: 9:29 Morgen
00:00
14°
1017.5 hPa
73%
11.9°
3
Windvlaag: -1.1 m/s
40%
01:00
14°
1017.3 hPa 1.9 mm
70%
11.9°
3
Windvlaag: -1.1 m/s
22%
02:00
14°
1017.1 hPa
71%
12.0°
3
Windvlaag: -0.4 m/s
69%
03:00
14°
1016.9 hPa 2.5 mm
38%
12.0°
4
Windvlaag: -0.5 m/s
45%
04:00
14°
1016.7 hPa 1.8 mm
75%
12.1°
4
Windvlaag: -1.2 m/s
56%
05:00
14°
1016.5 hPa 1.8 mm
78%
12.1°
4
Windvlaag: -1.5 m/s
49%
06:00
14°
1016.4 hPa 2.5 mm
73%
12.1°
4
Windvlaag: -1.9 m/s
68%
07:00
14°
1016.7 hPa 1.9 mm
79%
12.0°
4
Windvlaag: -2 m/s
78%
08:00
14°
1016.9 hPa 2.1 mm
82%
11.9°
4
Windvlaag: -2.3 m/s
74%
09:00
15°
1017.3 hPa 2.9 mm
80%
12.3°
4
Windvlaag: -0.8 m/s
70%
10:00
15°
1017.6 hPa 2.1 mm
81%
12.7°
4
Windvlaag: 1 m/s
83%
11:00
16°
1017.5 hPa 2.5 mm
82%
13.2°
5
Windvlaag: 1.9 m/s
75%
12:00
16°
1017.2 hPa 4.2 mm
82%
13.2°
5
Windvlaag: 1.5 m/s
83%
13:00
16°
1016.8 hPa 3.4 mm
82%
13.5°
5
Windvlaag: 0.5 m/s
86% warningclass
14:00
16°
1016.3 hPa 3.3 mm
82%
13.6°
5
Windvlaag: -0.4 m/s
88%
15:00
16°
1016.0 hPa 3.1 mm
80%
13.5°
5
Windvlaag: -1.4 m/s
86% warningclass
16:00
16°
1015.9 hPa 3.0 mm
82%
13.5°
6
Windvlaag: -1.7 m/s
82%
17:00
16°
1016.0 hPa 2.8 mm
80%
13.6°
6
Windvlaag: -1.7 m/s
78%
18:00
16°
1016.2 hPa
81%
13.5°
6
Windvlaag: -1.7 m/s
82% warningclass
19:00
16°
1016.4 hPa
82%
13.5°
6
Windvlaag: -1.9 m/s
88% warningclass
20:00
15°
1016.4 hPa
82%
13.4°
6
Windvlaag: -2.1 m/s
85%
21:00
15°
1016.5 hPa
80%
13.4°
6
Windvlaag: -2.1 m/s
83%
22:00
15°
1016.4 hPa
81%
13.3°
6
Windvlaag: -2.4 m/s
88%
23:00
15°
1016.2 hPa 2.8 mm
82%
13.3°
6
Windvlaag: -2.5 m/s
89%
 07:56     17:23    Daglengte: 9:27 Vrijdag 27 Nov
00:00
15°
1015.9 hPa
82%
13.3°
6
Windvlaag: -2.7 m/s
88%
01:00
15°
1015.6 hPa 3.0 mm
82%
13.2°
6
Windvlaag: -2.5 m/s
89% warningclass
02:00
15°
1015.2 hPa 2.4 mm
82%
13.1°
7
Windvlaag: -2.4 m/s
89% warningclass
03:00
15°
1014.8 hPa 2.2 mm
82%
13.1°
7
Windvlaag: -2.2 m/s
89%
04:00
15°
1014.4 hPa 2.2 mm
100%
12.9°
7
Windvlaag: -2 m/s
98% warningclass
05:00
15°
1014.0 hPa 2.2 mm
99%
13.1°
7
Windvlaag: -1.7 m/s
98%
06:00
15°
1013.9 hPa 3.3 mm
99%
13.4°
6
Windvlaag: -1.9 m/s
96%
07:00
15°
1013.8 hPa 2.3 mm
100%
13.3°
6
Windvlaag: -1.7 m/s
99%
08:00
15°
1013.7 hPa 2.7 mm
98%
13.3°
7
Windvlaag: -2.3 m/s
98%
09:00
15°
1014.0 hPa 3.3 mm
81%
13.3°
7
Windvlaag: -2.3 m/s
99%
10:00
15°
1013.7 hPa 3.0 mm
81%
13.4°
7
Windvlaag: -1.8 m/s
99%
11:00
15°
1013.4 hPa 2.3 mm
85%
13.4°
8
Windvlaag: -2.1 m/s
98%
12:00
15°
1012.9 hPa 2.6 mm
94%
13.4°
8
Windvlaag: -1.9 m/s
100% warningclass
13:00
15°
1012.2 hPa 2.6 mm
94%
13.7°
9
Windvlaag: -1.5 m/s
99%
14:00
15°
1011.3 hPa 2.7 mm
88%
13.5°
9
Windvlaag: -1.4 m/s
96%
15:00
15°
1010.7 hPa 2.7 mm
85%
13.8°
8
Windvlaag: -1.2 m/s
98%
16:00
15°
1010.4 hPa 2.6 mm
87%
13.8°
9
Windvlaag: -1.3 m/s
98% warningclass
17:00
15°
1010.1 hPa 2.4 mm
87%
13.6°
8
Windvlaag: -1.3 m/s
98% warningclass
18:00
15°
1010.2 hPa 2.7 mm
83%
13.7°
8
Windvlaag: -1.1 m/s
99% warningclass
19:00
15°
1010.1 hPa 3.9 mm
83%
14.0°
8
Windvlaag: -1.3 m/s
97% warningclass
20:00
15°
1010.0 hPa 4.5 mm
86%
13.7°
7
Windvlaag: -2.7 m/s
88% warningclass
21:00
15°
1009.8 hPa 4.5 mm
87%
13.6°
8
Windvlaag: -2.9 m/s
96% warningclass
22:00
15°
1009.7 hPa 4.8 mm
94%
13.4°
8
Windvlaag: -0.5 m/s
96% warningclass
23:00
15°
1009.3 hPa 4.7 mm
97%
13.3°
7
Windvlaag: -0.4 m/s
96% warningclass
 07:57     17:23    Daglengte: 9:26 Zaterdag 28 Nov
00:00
15°
1009.0 hPa 7.1 mm
92%
13.1°
7
Windvlaag: -3 m/s
98% warningclass
01:00
14°
1008.7 hPa 4.4 mm
90%
12.8°
6
Windvlaag: -1.8 m/s
99% warningclass
02:00
15°
1008.1 hPa 7.5 mm
86%
12.9°
7
Windvlaag: 10.6 m/s
99% warningclass
03:00
15°
1007.7 hPa 7.4 mm
93%
12.9°
7
Windvlaag: 11.7 m/s
93% warningclass
04:00
15°
1007.2 hPa
91%
12.8°
7
Windvlaag: 11.5 m/s
94%
05:00
15°
1006.7 hPa
88%
12.8°
7
Windvlaag: 11.2 m/s
94%
06:00
14°
1006.1 hPa
49%
12.8°
7
Windvlaag: 13.1 m/s
93%
07:00
14°
1005.7 hPa
48%
12.8°
7
Windvlaag: 1.8 m/s
90%
08:00
14°
1005.2 hPa 28.4 mm
100%
12.4°
6
Windvlaag: 11.5 m/s
99% warningclass
09:00
14°
1005.0 hPa 29.6 mm
100%
12.6°
6
Windvlaag: 13 m/s
98% warningclass
Temp/Neerslag /Baro Onweer/Dauwpunt
    Temp Baro Neerslag Dauwpunt Wind Bewolking  
 07:53     17:24    Daglengte: 9:31 Vandaag
10:00
14°
1018.7 hPa   10.6°
3
30%
13:00
16°
1017.6 hPa   11.3°
3
35%
16:00
16°
1016.5 hPa   11.4°
3
55%
19:00
15°
1016.9 hPa   12.2°
2
63%
22:00
14°
1017.6 hPa 2.0 mm 11.7°
3
46%
 07:55     17:24    Daglengte: 9:29 Morgen
01:00
14°
1017.3 hPa 1.9 mm 11.9°
3
22%
04:00
14°
1016.7 hPa 4.3 mm 12.1°
4
56%
07:00
14°
1016.7 hPa 6.2 mm 12.0°
4
78%
10:00
15°
1017.6 hPa 7.2 mm 12.7°
4
83%
13:00
16°
1016.8 hPa 10.1 mm 13.5°
5
86% warningclass
16:00
16°
1015.9 hPa 9.4 mm 13.5°
6
82%
19:00
16°
1016.4 hPa 2.8 mm 13.5°
6
88% warningclass
22:00
15°
1016.4 hPa   13.3°
6
88%
 07:56     17:23    Daglengte: 9:27 Vrijdag 27 Nov
01:00
15°
1015.6 hPa 5.8 mm 13.2°
6
89% warningclass
04:00
15°
1014.4 hPa 6.8 mm 12.9°
7
98% warningclass
07:00
15°
1013.8 hPa 7.7 mm 13.3°
6
99%
10:00
15°
1013.7 hPa 9.0 mm 13.4°
7
99%
13:00
15°
1012.2 hPa 7.5 mm 13.7°
9
99%
16:00
15°
1010.4 hPa 8.1 mm 13.8°
9
98% warningclass
19:00
15°
1010.1 hPa 9.0 mm 14.0°
8
97% warningclass
22:00
15°
1009.7 hPa 13.7 mm 13.4°
8
96% warningclass
 07:57     17:23    Daglengte: 9:26 Zaterdag 28 Nov
01:00
14°
1008.7 hPa 16.2 mm 12.8°
6
99% warningclass
04:00
15°
1007.2 hPa 14.9 mm 12.8°
7
94% warningclass
07:00
14°
1005.7 hPa   12.8°
7
90%
10:00
14°
1005.0 hPa 87.9 mm 12.8°
6
99% warningclass
13:00
15°
1004.8 hPa 105.6 mm 13.2°
7
99%
16:00
14°
1005.2 hPa 27.6 mm 12.5°
7
91%
19:00
14°
1005.4 hPa 28.8 mm 12.3°
7
91%
22:00
14°
1006.2 hPa 31.0 mm 12.2°
7
90%
 07:58     17:23    Daglengte: 9:25 Zondag 29 Nov
01:00
14°
1006.9 hPa 32.1 mm 12.0°
8
89%
04:00
14°
1008.1 hPa 33.0 mm 11.3°
6
90%
07:00
14°
1009.3 hPa 33.9 mm 10.6°
5
92%
10:00
15°
1011.0 hPa 33.9 mm 9.8°
5
79%
13:00
17°
1012.7 hPa 33.9 mm 8.5°
5
66%
16:00
16°
1013.8 hPa 33.9 mm 8.4°
3
59%
19:00
16°
1015.1 hPa 33.9 mm 8.4°
2
53%
22:00
13°
1016.2 hPa 33.9 mm 8.8°
2
26%
 07:59     17:22    Daglengte: 9:23 Maandag 30 Nov
01:00
11°
1017.2 hPa 33.9 mm 8.7°
3
0%
04:00
11°
1017.5 hPa 33.9 mm 8.1°
3
0%
07:00
11°
1017.8 hPa 33.9 mm 7.5°
4
0%
10:00
14°
1018.3 hPa 33.9 mm 8.4°
2
0%
13:00
17°
1018.7 hPa 33.9 mm 8.9°
1
0%
16:00
15°
1019.2 hPa 33.9 mm 10.5°
1
0%
19:00
13°
1019.8 hPa 33.9 mm 11.6°
2
0%
22:00
11°
1020.4 hPa 33.9 mm 10.0°
2
10%
 08:00     17:22    Daglengte: 9:22 Dinsdag 01 Dec
01:00
10°
Voelt als: 8.4°
1020.9 hPa 33.9 mm 8.5°
3
21%
04:00
10°
1021.1 hPa 34.0 mm 8.9°
2
52%
07:00
11°
1021.2 hPa 34.0 mm 9.3°
2
83%
10:00
13°
1021.4 hPa 34.0 mm 10.0°
1
72%
13:00
15°
1021.5 hPa 34.0 mm 10.7°
1
62%
16:00
14°
1021.2 hPa 34.0 mm 10.8°
1
55%
19:00
14°
1021.0 hPa 34.0 mm 10.9°
1
48%
22:00
13°
1020.8 hPa 34.0 mm 10.8°
1
57%
 08:01     17:22    Daglengte: 9:21 Woensdag 02 Dec
01:00
12°
1020.6 hPa 34.0 mm 10.6°
1
67%
04:00
12°
1019.4 hPa 34.0 mm 10.3°
1
79%
07:00
12°
1018.3 hPa 68.0 mm 9.9°
2
92%
13:00
13°
1016.1 hPa 68.5 mm 7.9°
4
92%
19:00
12°
1013.4 hPa 69.4 mm 9.3°
2
92%
 08:02     17:22    Daglengte: 9:20 Donderdag 03 Dec
01:00
11°
1011.4 hPa 71.2 mm 9.2°
3
92%
07:00
Voelt als: 7.1°
1008.9 hPa 72.3 mm 7.9°
2
54%
13:00
13°
1008.4 hPa 74.8 mm 7.7°
1
43%
19:00
12°
1007.7 hPa 75.7 mm 9.2°
1
41%
 08:03     17:22    Daglengte: 9:19 Vrijdag 04 Dec
01:00
11°
1007.3 hPa 75.7 mm 9.6°
1
92%
07:00
14°
1004.7 hPa 76.0 mm 11.7°
3
85%
13:00
15°
1009.7 hPa 76.6 mm 9.4°
2
1%
19:00
14°
1010.9 hPa 76.7 mm 10.5°
3
1%
 08:04     17:21    Daglengte: 9:17 Zaterdag 05 Dec
01:00
14°
1013.0 hPa 76.9 mm 10.5°
2
1%
07:00
12°
1008.3 hPa 1.0 mm 7.0°
1
71%
13:00
14°
1008.8 hPa 1.0 mm 6.8°
0
66%
19:00
13°
1009.0 hPa 1.4 mm 7.4°
1
64%
 08:05     17:21    Daglengte: 9:16 Zondag 06 Dec
01:00
12°
1009.8 hPa 2.1 mm 6.8°
2
60%
07:00
11°
1009.7 hPa 1.5 mm 5.5°
2
54%
13:00
13°
1010.2 hPa 0.2 mm 5.4°
2
60%
19:00
13°
1010.7 hPa 0.3 mm 6.3°
1
61%
 08:06     17:21    Daglengte: 9:15 Maandag 07 Dec
01:00
12°
1011.7 hPa 0.3 mm 6.2°
2
64%
07:00
11°
1011.6 hPa 0.3 mm 5.0°
2
56%
13:00
13°
1012.2 hPa 0.7 mm 4.8°
1
58%
19:00
13°
1013.2 hPa 0.7 mm 5.8°
1
49%
 08:06     17:21    Daglengte: 9:15 Dinsdag 08 Dec
01:00
11°
1015.2 hPa 0.5 mm 4.6°
2
38%
07:00
10°
1015.4 hPa 0.2 mm 3.4°
2
36%
13:00
13°
1016.0 hPa 0.2 mm 3.6°
1
46%
19:00
12°
1016.2 hPa 0.2 mm 5.4°
1
36%
 08:07     17:21    Daglengte: 9:14 Woensdag 09 Dec
01:00
11°
1017.5 hPa 0.5 mm 5.1°
2
48%
07:00
10°
1017.4 hPa 0.4 mm 4.4°
2
57%
13:00
13°
1017.8 hPa 1.3 mm 4.1°
2
57%
19:00
12°
1018.4 hPa 0.2 mm 5.0°
1
45%
 08:08     17:21    Daglengte: 9:13 Donderdag 10 Dec
01:00
11°
1019.7 hPa   5.0°
2
41%
07:00
10°
1019.1 hPa 0.3 mm 4.1°
2
46%
  CAPE Lifted Index Hail Supercell Tornado SRH 3km CL BTM PRES CL TOP PRES Swiss DWD icon SMHI TS
 07:53     17:24    Daglengte: 9:31 Vandaag
10:00 85 J/kg 0.3 K 0 % 0 % 0 % 0 m²/s² 0 0 3.66 2
11:00 94 J/kg 0.3 K 0 % 0 % 0 % 0 m²/s² 0 0 3.57 2
12:00 94 J/kg 0.5 K 0 % 0 % 0 % 0 m²/s² 0 0 4.13 1
13:00 91 J/kg 0.7 K 0 % 0 % 0 % 0 m²/s² 0 0 5.17 2
14:00 78 J/kg 0.9 K 0 % 0 % 0 % 0 m²/s² 0 0 5.37 2
15:00 73 J/kg 1.0 K 0 % 0 % 0 % 0 m²/s² 0 0 5.47 1
16:00 97 J/kg 0.9 K 0 % 0 % 0 % 0 m²/s² 0 0 5.37 1
17:00 111 J/kg 0.7 K 0 % 0 % 0 % 0 m²/s² 0 0 5.05 1
18:00 139 J/kg 0.3 K 0 % 0 % 0 % 0 m²/s² 0 0 4.65 2
19:00 210 J/kg -0.1 K 0 % 0 % 0 % 0 m²/s² 0 0 4.16 3
20:00 252 J/kg -0.5 K 0 % 0 % 0 % 0 m²/s² 0 0 3.52 2
21:00 266 J/kg -0.5 K 0 % 0 % 0 % 0 m²/s² 0 0 3.52 2
22:00 268 J/kg -0.5 K 0 % 0 % 0 % 0 m²/s² 0 0 3.43 2
23:00 360 J/kg -1.0 K 0 % 0 % 0 % 0 m²/s² 0 0 0.53 80
 07:55     17:24    Daglengte: 9:29 Morgen
00:00 453 J/kg -1.5 K 0 % 0 % 0 % 0 m²/s² 0 0 0.75 3
01:00 548 J/kg -2.1 K 0 % 0 % 0 % 0 m²/s² 0 0 0.36 80
02:00 464 J/kg -1.8 K 0 % 0 % 0 % 0 m²/s² 0 0 -0.99 2
03:00 510 J/kg -2.2 K 0 % 0 % 0 % 0 m²/s² 0 0 0.5 2
04:00 403 J/kg -1.8 K 0 % 0 % 0 % 0 m²/s² 0 0 1.83 2
05:00 492 J/kg -2.3 K 0 % 0 % 0 % 0 m²/s² 0 0 0.55 80
06:00 436 J/kg -2.2 K 0 % 0 % 0 % 0 m²/s² 0 0 0.5 80
07:00 326 J/kg -2.3 K 0 % 0 % 0 % 0 m²/s² 0 0 0.4 80
08:00 380 J/kg -2.5 K 0 % 0 % 0 % 0 m²/s² 0 0 0.14 80
09:00 540 J/kg -2.5 K 0 % 0 % 0 % 0 m²/s² 0 0 -0.1 3
10:00 700 J/kg -2.7 K 0 % 0 % 0 % 0 m²/s² 0 0 -0.36 80
11:00 773 J/kg -2.8 K 0 % 0 % 0 % 0 m²/s² 0 0 -0.31 80
12:00 641 J/kg -2.3 K 0 % 0 % 0 % 0 m²/s² 0 0 0.25 80
13:00 687 J/kg -2.3 K 0 % 0 % 0 % 0 m²/s² 0 0 0.25 95
14:00 808 J/kg -2.7 K 0 % 0 % 0 % 0 m²/s² 0 0 -0.06 80
15:00 874 J/kg -2.7 K 0 % 0 % 0 % 0 m²/s² 0 0 -0.78 95
16:00 964 J/kg -3.2 K 0 % 0 % 0 % 0 m²/s² 0 0 -1.19 80
17:00 1028 J/kg -3.2 K 0 % 0 % 0 % 0 m²/s² 0 0 -1.4 80
18:00 1041 J/kg -3.2 K 0 % 0 % 0 % 0 m²/s² 0 0 -1.31 95
19:00 1048 J/kg -3.3 K 0 % 0 % 0 % 0 m²/s² 0 0 -1.41 95
20:00 1049 J/kg -3.4 K 0 % 0 % 0 % 0 m²/s² 0 0 -1.39 80
21:00 1098 J/kg -3.8 K 0 % 0 % 0 % 0 m²/s² 0 0 -1.61 80
22:00 1025 J/kg -3.5 K 0 % 0 % 0 % 0 m²/s² 0 0 -1.31 80
23:00 909 J/kg -2.9 K 0 % 0 % 0 % 0 m²/s² 0 0 -0.89 80
 07:56     17:23    Daglengte: 9:27 Vrijdag 27 Nov
00:00 889 J/kg -2.9 K 0 % 0 % 0 % 0 m²/s² 0 0 -0.83 80
01:00 922 J/kg -3.0 K 0 % 0 % 0 % 0 m²/s² 0 0 -1.2 95
02:00 928 J/kg -3.1 K 0 % 0 % 0 % 0 m²/s² 0 0 -1.36 95
03:00 747 J/kg -2.5 K 0 % 0 % 0 % 0 m²/s² 0 0 -1 80
04:00 769 J/kg -2.7 K 0 % 0 % 0 % 0 m²/s² 0 0 -1.02 95
05:00 843 J/kg -2.9 K 0 % 0 % 0 % 0 m²/s² 0 0 -1.1 80
06:00 873 J/kg -3.0 K 0 % 0 % 0 % 0 m²/s² 0 0 -1.08 80
07:00 1020 J/kg -3.4 K 0 % 0 % 0 % 0 m²/s² 0 0 -1.36 3
08:00 1122 J/kg -3.7 K 0 % 0 % 0 % 0 m²/s² 0 0 -1.51 80
09:00 1284 J/kg -4.0 K 0 % 0 % 0 % 0 m²/s² 0 0 -1.33 3
10:00 1346 J/kg -4.1 K 0 % 0 % 0 % 0 m²/s² 0 0 -1.04 3
11:00 1352 J/kg -3.9 K 0 % 0 % 0 % 0 m²/s² 0 0 -1.44 3
12:00 1271 J/kg -3.9 K 0 % 0 % 0 % 0 m²/s² 0 0 -2.61 95
13:00 1123 J/kg -3.7 K 0 % 0 % 0 % 0 m²/s² 0 0 -1.45 80
14:00 1047 J/kg -3.6 K 0 % 0 % 0 % 0 m²/s² 0 0 -1.29 80
15:00 1074 J/kg -3.8 K 0 % 0 % 0 % 0 m²/s² 0 0 -1.34 80
16:00 1063 J/kg -3.7 K 0 % 0 % 0 % 0 m²/s² 0 0 -2.26 95
17:00 1083 J/kg -3.7 K 0 % 0 % 0 % 0 m²/s² 0 0 -2.41 80
18:00 1465 J/kg -4.4 K 0 % 0 % 0 % 0 m²/s² 0 0 -3.98 80
19:00 1629 J/kg -4.8 K 0 % 0 % 0 % 0 m²/s² 0 0 -3.66 80
20:00 1824 J/kg -5.2 K 0 % 0 % 0 % 0 m²/s² 0 0 -2.95 80
21:00 1837 J/kg -5.2 K 0 % 0 % 0 % 0 m²/s² 0 0 -4 80
22:00 1728 J/kg -5.1 K 0 % 0 % 0 % 0 m²/s² 0 0 -4.02 80
23:00 1743 J/kg -5.2 K 0 % 0 % 0 % 0 m²/s² 0 0 -4.48 80
 07:57     17:23    Daglengte: 9:26 Zaterdag 28 Nov
00:00 1838 J/kg -5.5 K 0 % 0 % 0 % 0 m²/s² 0 0 -4.78 80
01:00 1838 J/kg -5.3 K 0 % 0 % 0 % 0 m²/s² 0 0 -4.01 80
02:00 1891 J/kg -5.4 K 0 % 0 % 0 % 0 m²/s² 0 0 -3.54 80
03:00 1961 J/kg -5.4 K 0 % 0 % 0 % 0 m²/s² 0 0 -4.17 80
04:00 1891 J/kg -5.3 K 0 % 0 % 0 % 0 m²/s² 0 0 -4.01 80
05:00 1956 J/kg -5.2 K 0 % 0 % 0 % 0 m²/s² 0 0 -4.15 3
06:00 1925 J/kg -5.3 K 0 % 0 % 0 % 0 m²/s² 0 0 -3.23 80
07:00 2019 J/kg -5.6 K 0 % 0 % 0 % 0 m²/s² 0 0 -3.77 3
08:00 2056 J/kg -5.8 K 0 % 0 % 0 % 0 m²/s² 0 0 -4.84
09:00 1780 J/kg -4.7 K 0 % 0 % 0 % 0 m²/s² 0 0 -3.11
Temp Baro Wind Neerslag
  EWN Forecast EWN WRFDA DWD ICON FMI HIRLAM MET Norway GFS
 07:53     17:24    Daglengte: 9:31 Vandaag
10:00 14.0° 1018.7 hPa 2.6 m/s 0.0 mm 15.8° 1016.8 hPa 3.6 m/s 1.6 mm 12.9° 1018.6 hPa 1.8 m/s -1.9 mm 16.0° 1019.1 hPa 3.3 m/s 0.0 mm 14.0° 1019.0 hPa 1.2 m/s 15.5° 1018.3 hPa 3.2 m/s
13:00 16.3° 1017.6 hPa 3.5 m/s 0.0 mm 16.8° 1016.0 hPa 3.9 m/s 5.1 mm 16.1° 1017.2 hPa 0.8 m/s 0.0 mm 16.8° 1018.2 hPa 3.8 m/s 0.0 mm 16.3° 1017.8 hPa 4.4 m/s 16.3° 1017.3 hPa 3.8 m/s
16:00 16.0° 1016.5 hPa 2.8 m/s 0.0 mm 16.7° 1015.0 hPa 3.3 m/s 5.1 mm 16.3° 1016.2 hPa 1.3 m/s 0.0 mm 16.9° 1017.0 hPa 2.8 m/s 0.0 mm 15.6° 1016.6 hPa 3.9 m/s 16.4° 1016.3 hPa 3.6 m/s
19:00 15.3° 1016.9 hPa 2.1 m/s 0.0 mm 16.0° 1015.3 hPa 3.4 m/s 5.3 mm 15.7° 1016.6 hPa 1.6 m/s 0.0 mm 16.7° 1017.3 hPa 3.5 m/s 0.0 mm 15.1° 1017.0 hPa 1.4 m/s 15.9° 1016.8 hPa 3.7 m/s
22:00 14.1° 1017.6 hPa 2.8 m/s 2.0 mm 16.0° 1016.1 hPa 5.5 m/s 6.7 mm 14.5° 1017.2 hPa 1.7 m/s 0.1 mm 16.5° 1017.6 hPa 3.2 m/s 0.0 mm 13.3° 1017.9 hPa 2.3 m/s 15.9° 1017.7 hPa 3.3 m/s
 07:55     17:24    Daglengte: 9:29 Morgen
01:00 13.7° 1017.3 hPa 3.1 m/s 1.9 mm 15.7° 1015.6 hPa 5.2 m/s 16.5 mm 13.8° 1016.6 hPa 3.3 m/s 0.2 mm 15.9° 1017.5 hPa 2.9 m/s 0.0 mm 13.3° 1017.7 hPa 2.4 m/s 15.4° 1017.7 hPa 2.3 m/s
04:00 13.9° 1016.7 hPa 3.9 m/s 4.3 mm 15.6° 1014.8 hPa 6.6 m/s 33.4 mm 13.4° 1016.5 hPa 3.2 m/s 0.2 mm 15.7° 1016.8 hPa 4.5 m/s 0.0 mm 13.7° 1016.9 hPa 3.5 m/s 15.1° 1017.0 hPa 1.5 m/s
07:00 13.8° 1016.7 hPa 3.8 m/s 6.2 mm 15.4° 1015.0 hPa 6.0 m/s 35.8 mm 13.9° 1016.1 hPa 3.3 m/s 0.6 mm 16.5° 1016.7 hPa 3.4 m/s 0.0 mm 13.3° 1016.9 hPa 3.6 m/s 14.6° 1017.1 hPa 2.7 m/s
10:00 15.2° 1017.6 hPa 4.3 m/s 7.2 mm 16.7° 1016.2 hPa 5.2 m/s 37.5 mm 14.8° 1017.0 hPa 4.5 m/s 0.6 mm 17.5° 1017.7 hPa 6.0 m/s 0.0 mm 14.9° 1017.7 hPa 3.9 m/s 15.3° 1017.9 hPa 2.3 m/s
13:00 16.2° 1016.8 hPa 4.9 m/s 10.1 mm 18.2° 1015.5 hPa 5.2 m/s 38.9 mm 15.6° 1016.3 hPa 4.7 m/s 1.0 mm 16.7° 1017.0 hPa 5.0 m/s 0.0 mm 16.1° 1016.9 hPa 4.4 m/s 16.1° 1016.9 hPa 3.7 m/s
16:00 16.2° 1015.9 hPa 5.6 m/s 9.4 mm 17.7° 1015.0 hPa 5.8 m/s 38.9 mm 15.7° 1015.2 hPa 5.7 m/s 1.4 mm 16.9° 1016.1 hPa 6.9 m/s 0.0 mm 16.3° 1015.9 hPa 4.6 m/s 16.4° 1016.1 hPa 4.9 m/s
19:00 15.5° 1016.4 hPa 5.9 m/s 2.8 mm 16.9° 1015.4 hPa 6.6 m/s 39.0 mm 15.3° 1016.2 hPa 6.0 m/s 1.8 mm 16.6° 1016.4 hPa 7.5 m/s 0.0 mm 15.5° 1016.4 hPa 4.9 m/s 15.8° 1016.4 hPa 5.6 m/s
22:00 15.3° 1016.4 hPa 6.2 m/s 0.0 mm 16.3° 1016.0 hPa 6.8 m/s 39.2 mm 15.2° 1016.2 hPa 5.9 m/s 1.2 mm 16.9° 1016.3 hPa 8.1 m/s 0.0 mm 15.2° 1016.4 hPa 5.4 m/s 15.5° 1017.0 hPa 6.0 m/s
 07:56     17:23    Daglengte: 9:27 Vrijdag 27 Nov
01:00 15.3° 1015.6 hPa 6.4 m/s 5.8 mm 16.1° 1015.1 hPa 6.7 m/s 39.2 mm 15.3° 1015.9 hPa 4.5 m/s 1.2 mm 16.5° 1015.5 hPa 8.5 m/s 0.0 mm 15.2° 1015.5 hPa 6.0 m/s 15.2° 1016.2 hPa 6.1 m/s
04:00 14.8° 1014.4 hPa 6.5 m/s 6.8 mm 16.0° 1014.3 hPa 6.5 m/s 39.2 mm 15.2° 1015.0 hPa 5.7 m/s 2.8 mm 14.7° 1014.2 hPa 6.4 m/s 15.0° 1015.2 hPa 5.6 m/s
07:00 14.8° 1013.8 hPa 6.3 m/s 7.7 mm 15.7° 1012.6 hPa 7.5 m/s 39.2 mm 15.4° 1014.3 hPa 6.0 m/s 1.6 mm 14.6° 1013.7 hPa 5.5 m/s 15.1° 1013.8 hPa 6.1 m/s
10:00 14.9° 1013.7 hPa 7.3 m/s 9.0 mm 16.7° 1013.0 hPa 8.4 m/s 39.3 mm 15.9° 1014.4 hPa 7.1 m/s 0.1 mm 14.6° 1013.6 hPa 6.9 m/s 15.4° 1013.9 hPa 7.2 m/s
13:00 15.3° 1012.2 hPa 9.1 m/s 7.5 mm 16.6° 1011.4 hPa 9.1 m/s 41.4 mm 16.2° 1013.1 hPa 9.3 m/s 0.9 mm 15.0° 1012.0 hPa 8.7 m/s 16.1° 1012.2 hPa 8.3 m/s
16:00 15.2° 1010.4 hPa 9.4 m/s 8.1 mm 16.4° 1009.3 hPa 10.9 m/s 43.0 mm 15.6° 1011.8 hPa 9.9 m/s 0.9 mm 14.8° 1010.2 hPa 6.6 m/s 15.9° 1010.4 hPa 8.8 m/s
19:00 15.0° 1010.1 hPa 8.0 m/s 9.0 mm 16.2° 1007.9 hPa 8.3 m/s 48.9 mm 15.1° 1011.5 hPa 9.7 m/s 0.5 mm 14.3° 1010.0 hPa 6.2 m/s 15.5° 1010.0 hPa 9.5 m/s
22:00 15.0° 1009.7 hPa 7.7 m/s 13.7 mm 17.0° 1007.9 hPa 7.7 m/s 55.2 mm 14.9° 1011.1 hPa 9.5 m/s 1.0 mm 14.0° 1009.4 hPa 5.9 m/s 15.9° 1009.6 hPa 6.6 m/s
 07:57     17:23    Daglengte: 9:26 Zaterdag 28 Nov
01:00 14.5° 1008.7 hPa 6.3 m/s 16.2 mm 16.7° 1006.5 hPa 7.8 m/s 59.6 mm 15.3° 1009.5 hPa 8.5 m/s 2.1 mm 13.7° 1008.7 hPa 5.6 m/s 15.7° 1008.5 hPa 6.0 m/s
04:00 14.5° 1007.2 hPa 6.9 m/s 14.9 mm 16.7° 1004.5 hPa 9.7 m/s 66.6 mm 15.3° 1008.7 hPa 8.3 m/s 0.7 mm 13.6° 1007.2 hPa 5.2 m/s 15.6° 1006.6 hPa 6.0 m/s
07:00 14.5° 1005.7 hPa 6.7 m/s 0.0 mm 16.8° 1001.9 hPa 10.3 m/s 78.4 mm 15.3° 1007.8 hPa 7.9 m/s 0.0 mm 13.4° 1005.8 hPa 4.9 m/s 15.4° 1005.1 hPa 7.7 m/s
10:00 14.4° 1005.0 hPa 6.3 m/s 87.9 mm 17.1° 1001.6 hPa 8.2 m/s 87.9 mm 14.0° 1005.5 hPa 6.0 m/s 15.6° 1004.7 hPa 9.2 m/s
13:00 14.7° 1004.8 hPa 7.5 m/s 105.6 mm 15.2° 1001.7 hPa 10.2 m/s 105.6 mm 14.6° 1005.3 hPa 7.0 m/s 15.3° 1003.6 hPa 8.6 m/s
16:00 14.2° 1005.2 hPa 7.1 m/s 27.6 mm 14.1° 1005.4 hPa 7.0 m/s 14.9° 1002.4 hPa 8.0 m/s 27.6 mm
19:00 14.0° 1005.4 hPa 7.1 m/s 28.8 mm 13.9° 1005.5 hPa 7.0 m/s 15.1° 1004.0 hPa 7.8 m/s 28.8 mm
22:00 14.0° 1006.2 hPa 7.4 m/s 31.0 mm 13.9° 1006.2 hPa 7.2 m/s 14.9° 1005.1 hPa 9.4 m/s 31.0 mm
 07:58     17:23    Daglengte: 9:25 Zondag 29 Nov
01:00 14.1° 1006.9 hPa 7.5 m/s 32.1 mm 14.0° 1007.0 hPa 7.5 m/s 14.7° 1006.2 hPa 7.9 m/s 32.1 mm
04:00 13.9° 1008.1 hPa 6.1 m/s 33.0 mm 13.8° 1008.2 hPa 6.0 m/s 14.7° 1007.2 hPa 6.7 m/s 33.0 mm
07:00 13.8° 1009.3 hPa 4.8 m/s 33.9 mm 13.7° 1009.4 hPa 4.5 m/s 14.6° 1008.5 hPa 7.9 m/s 33.9 mm
10:00 15.2° 1011.0 hPa 5.0 m/s 33.9 mm 15.2° 1011.1 hPa 4.8 m/s 15.2° 1010.4 hPa 7.5 m/s 33.9 mm
13:00 16.6° 1012.7 hPa 5.2 m/s 33.9 mm 16.6° 1012.8 hPa 5.0 m/s 16.9° 1011.0 hPa 7.6 m/s 33.9 mm
16:00 16.3° 1013.8 hPa 3.5 m/s 33.9 mm 16.2° 1014.0 hPa 3.2 m/s 16.6° 1011.2 hPa 6.7 m/s 33.9 mm
19:00 15.9° 1015.1 hPa 1.6 m/s 33.9 mm 15.9° 1015.3 hPa 1.4 m/s 15.7° 1012.5 hPa 3.6 m/s 33.9 mm
22:00 13.3° 1016.2 hPa 2.3 m/s 33.9 mm 13.2° 1016.3 hPa 2.2 m/s 14.9° 1014.1 hPa 2.6 m/s 33.9 mm
 07:59     17:22    Daglengte: 9:23 Maandag 30 Nov
01:00 10.8° 1017.2 hPa 3.0 m/s 33.9 mm 10.5° 1017.4 hPa 3.1 m/s 14.3° 1014.5 hPa 1.8 m/s 33.9 mm
04:00 10.9° 1017.5 hPa 3.2 m/s 33.9 mm 10.6° 1017.8 hPa 3.4 m/s 13.8° 1014.4 hPa 1.6 m/s 33.9 mm
07:00 10.9° 1017.8 hPa 3.5 m/s 33.9 mm 10.7° 1018.1 hPa 3.7 m/s 13.4° 1014.7 hPa 1.8 m/s 33.9 mm
10:00 13.7° 1018.3 hPa 2.0 m/s 33.9 mm 13.7° 1018.6 hPa 2.0 m/s 14.2° 1014.9 hPa 1.5 m/s 33.9 mm
13:00 16.6° 1018.7 hPa 0.6 m/s 33.9 mm 16.6° 1019.1 hPa 0.4 m/s 16.3° 1014.8 hPa 2.2 m/s 33.9 mm
16:00 14.9° 1019.2 hPa 1.1 m/s 33.9 mm 14.7° 1019.7 hPa 1.0 m/s 16.6° 1014.5 hPa 2.0 m/s 33.9 mm
19:00 13.0° 1019.8 hPa 1.6 m/s 33.9 mm 12.8° 1020.2 hPa 1.6 m/s 15.3° 1015.6 hPa 1.0 m/s 33.9 mm
22:00 11.3° 1020.4 hPa 2.1 m/s 33.9 mm 11.1° 1020.7 hPa 2.0 m/s 14.5° 1017.1 hPa 2.3 m/s 33.9 mm
 08:00     17:22    Daglengte: 9:22 Dinsdag 01 Dec
01:00 9.7° 1020.9 hPa 2.6 m/s 33.9 mm 9.3° 1021.2 hPa 2.5 m/s 13.7° 1018.0 hPa 3.4 m/s 33.9 mm
04:00 10.5° 1021.1 hPa 2.3 m/s 34.0 mm 10.2° 1021.4 hPa 2.1 m/s 13.1° 1018.1 hPa 4.1 m/s 34.0 mm
07:00 11.3° 1021.2 hPa 1.9 m/s 34.0 mm 11.2° 1021.5 hPa 1.8 m/s 12.9° 1018.0 hPa 3.1 m/s 34.0 mm
10:00 13.0° 1021.4 hPa 1.4 m/s 34.0 mm 12.9° 1021.6 hPa 1.3 m/s 13.3° 1018.6 hPa 2.2 m/s 34.0 mm
13:00 14.7° 1021.5 hPa 0.9 m/s 34.0 mm 14.7° 1021.8 hPa 0.8 m/s 14.3° 1017.9 hPa 2.2 m/s 34.0 mm
16:00 14.1° 1021.2 hPa 1.1 m/s 34.0 mm 14.1° 1021.6 hPa 1.1 m/s 14.6° 1017.0 hPa 2.0 m/s 34.0 mm
19:00 13.6° 1021.0 hPa 1.4 m/s 34.0 mm 13.5° 1021.4 hPa 1.3 m/s 14.3° 1017.2 hPa 2.3 m/s 34.0 mm
22:00 12.9° 1020.8 hPa 1.1 m/s 34.0 mm 12.8° 1021.1 hPa 1.1 m/s 13.7° 1017.5 hPa 1.2 m/s 34.0 mm
 08:01     17:22    Daglengte: 9:21 Woensdag 02 Dec
01:00 12.2° 1020.6 hPa 0.8 m/s 34.0 mm 12.1° 1020.9 hPa 0.8 m/s 13.2° 1017.1 hPa 0.7 m/s 34.0 mm
04:00 12.1° 1019.4 hPa 1.5 m/s 34.0 mm 12.0° 1019.8 hPa 1.5 m/s 13.0° 1015.7 hPa 1.2 m/s 34.0 mm
07:00 12.0° 1018.3 hPa 2.1 m/s 34.0 mm 11.9° 1018.6 hPa 2.2 m/s 13.1° 1014.6 hPa 1.2 m/s 34.0 mm
13:00 12.5° 1016.1 hPa 3.8 m/s 34.4 mm 12.4° 1016.3 hPa 3.9 m/s 14.2° 1013.7 hPa 2.8 m/s 34.4 mm
19:00 11.9° 1013.4 hPa 2.4 m/s 35.0 mm 11.8° 1013.5 hPa 2.2 m/s 13.6° 1011.8 hPa 4.9 m/s 35.0 mm
 08:02     17:22    Daglengte: 9:20 Donderdag 03 Dec
01:00 10.9° 1011.4 hPa 2.5 m/s 35.6 mm 10.8° 1011.5 hPa 2.3 m/s 12.5° 1010.6 hPa 4.8 m/s 35.6 mm
07:00 8.4° 1008.9 hPa 2.2 m/s 36.4 mm 8.0° 1009.0 hPa 2.0 m/s 12.3° 1008.0 hPa 3.9 m/s 36.4 mm
13:00 12.8° 1008.4 hPa 0.8 m/s 37.7 mm 12.6° 1008.5 hPa 0.7 m/s 14.6° 1007.2 hPa 2.3 m/s 37.7 mm
19:00 12.5° 1007.7 hPa 1.4 m/s 37.9 mm 12.3° 1007.8 hPa 1.4 m/s 14.3° 1006.9 hPa 1.6 m/s 37.9 mm
 08:03     17:22    Daglengte: 9:19 Vrijdag 04 Dec
01:00 11.5° 1007.3 hPa 1.4 m/s 37.9 mm 11.3° 1007.2 hPa 1.3 m/s 13.5° 1008.1 hPa 2.1 m/s 37.9 mm
07:00 13.9° 1004.7 hPa 3.2 m/s 38.1 mm 13.9° 1004.4 hPa 3.2 m/s 13.3° 1008.2 hPa 3.2 m/s 38.1 mm
13:00 15.2° 1009.7 hPa 1.7 m/s 38.3 mm 15.2° 1009.7 hPa 1.7 m/s 38.3 mm
19:00 14.4° 1010.9 hPa 3.2 m/s 38.4 mm 14.4° 1010.9 hPa 3.2 m/s 38.4 mm
 08:04     17:21    Daglengte: 9:17 Zaterdag 05 Dec
01:00 13.7° 1013.0 hPa 2.2 m/s 38.5 mm 13.7° 1013.0 hPa 2.2 m/s 38.5 mm
07:00 11.6° 1008.3 hPa 1.1 m/s 1.0 mm
13:00 13.6° 1008.8 hPa 0.2 m/s 1.0 mm
19:00 12.9° 1009.0 hPa 0.9 m/s 1.4 mm
 08:05     17:21    Daglengte: 9:16 Zondag 06 Dec
01:00 11.8° 1009.8 hPa 1.8 m/s 2.1 mm
07:00 10.9° 1009.7 hPa 1.9 m/s 1.5 mm
13:00 13.5° 1010.2 hPa 1.5 m/s 0.2 mm
19:00 12.9° 1010.7 hPa 0.9 m/s 0.3 mm
 08:06     17:21    Daglengte: 9:15 Maandag 07 Dec
01:00 11.7° 1011.7 hPa 1.7 m/s 0.3 mm
07:00 10.8° 1011.6 hPa 2.3 m/s 0.3 mm
13:00 13.4° 1012.2 hPa 1.5 m/s 0.7 mm
19:00 12.6° 1013.2 hPa 1.5 m/s 0.7 mm
 08:06     17:21    Daglengte: 9:15 Dinsdag 08 Dec
01:00 11.1° 1015.2 hPa 2.1 m/s 0.5 mm
07:00 10.1° 1015.4 hPa 2.1 m/s 0.2 mm
13:00 12.9° 1016.0 hPa 1.3 m/s 0.2 mm
19:00 12.4° 1016.2 hPa 1.1 m/s 0.2 mm
 08:07     17:21    Daglengte: 9:14 Woensdag 09 Dec
01:00 11.1° 1017.5 hPa 1.7 m/s 0.5 mm
07:00 10.4° 1017.4 hPa 1.9 m/s 0.4 mm
13:00 12.9° 1017.8 hPa 1.8 m/s 1.3 mm
19:00 12.3° 1018.4 hPa 1.0 m/s 0.2 mm
 08:08     17:21    Daglengte: 9:13 Donderdag 10 Dec
01:00 11.1° 1019.7 hPa 1.8 m/s 0.0 mm
07:00 10.3° 1019.1 hPa 1.9 m/s 0.3 mm
FMI Hirlam - 7.5 km EWN WRFDA - 12 km DWD ICON - 7 km GFS - 25 km Basiskaart






























































Updatetijd (Europe/Brussels) Resolutie Lengte Stap
FMI Hirlam 06:00, 12:00, 18:00, 00:00 7.5 km 49h 1h
EWN WRFDA 09:30, 15:30, 21:30, 03:30 12 km 73h 1h
DWD ICON 05:00, 11:00, 17:00, 23:00 7 km 75h 1h
GFS 07:00, 13:00, 19:00, 01:00 25 km 237h 3h
30+ mm
25-30 mm
20-25 mm
15-20 mm
10-15 mm
6-10 mm
4-6 mm
2-4 mm
1-2 mm
0.5-1 mm
0.2-0.5 mm
0.1-0.2 mm
30+ mm
25-30 mm
20-25 mm
15-20 mm
10-15 mm
6-10 mm
4-6 mm
2-4 mm
1-2 mm
0.5-1 mm
0.2-0.5 mm
0.1-0.2 mm
Sneeuwval
Natte sneeuw
Hagel
Vorst
30+ mm
25-30 mm
20-25 mm
15-20 mm
10-15 mm
6-10 mm
4-6 mm
2-4 mm
1-2 mm
0.5-1 mm
0.2-0.5 mm
0.1-0.2 mm
Sneeuwval
Natte sneeuw
Hagel
Vorst
Onweer
50 mm
40 mm
30 mm
26 mm
22 mm
18 mm
14 mm
10 mm
9 mm
8 mm
7 mm
6 mm
5 mm
4.5 mm
4 mm
3.5 mm
3 mm
2.5 mm
2 mm
1.5 mm
1 mm
0.8 mm
0.6 mm
0.4 mm
0.2 mm
0.05 mm
35°
30°
25°
20°
15°
10°
-5°
-10°
-15°
-20°
-25°
-30°
-35°
33> m/s
29 m/s
25 m/s
21 m/s
17 m/s
14 m/s
11 m/s
8 m/s
5 m/s
3 m/s
0 m/s
2600 J/kg
2400 J/kg
2200 J/kg
2000 J/kg
1800 J/kg
1600 J/kg
1400 J/kg
1200 J/kg
1000 J/kg
800 J/kg
600 J/kg
400 J/kg
200 J/kg
70 dBZ
65 dBZ
60 dBZ
55 dBZ
50 dBZ
45 dBZ
40 dBZ
35 dBZ
30 dBZ
25 dBZ
20 dBZ
15 dBZ
10 dBZ
5 dBZ
-1 K
-2 K
-3 K
-4 K
-5 K
-6 K
-7 K
-8 K
-9 K
950 m²/s²
900 m²/s²
850 m²/s²
800 m²/s²
750 m²/s²
700 m²/s²
650 m²/s²
600 m²/s²
550 m²/s²
500 m²/s²
450 m²/s²
400 m²/s²
350 m²/s²
300 m²/s²
250 m²/s²
200 m²/s²
150 m²/s²
100 m²/s²
46 m/s
44 m/s
42 m/s
40 m/s
38 m/s
36 m/s
34 m/s
32 m/s
30 m/s
28 m/s
26 m/s
24 m/s
22 m/s
20 m/s
16 m/s
12 m/s
8 m/s
4 m/s
30 m/s
28 m/s
26 m/s
24 m/s
22 m/s
20 m/s
18 m/s
16 m/s
14 m/s
12 m/s
10 m/s
8 m/s
6 m/s
4 m/s
2 m/s
3.0
2.8
2.6
2.4
2.2
2.0
1.8
1.6
1.4
1.2
1.0
0.8
0.6
0.4
0.2
15
14
13
12
11
10
9
8
7
6
5
4
3
2
1
90%
80%
70%
60%
50%
40%
30%
20%
10%
42
40
38
36
34
32
30
28
26
24
22
20
18
16
14
12
90+ cm
80-90 cm
70-80 cm
60-70 cm
50-60 cm
40-50 cm
30-40 cm
20-30 cm
10-20 cm
1-10 cm
Sneeuwval
Natte sneeuw
Regen
>120 mm
115 mm
110 mm
105 mm
100 mm
95 mm
90 mm
85 mm
80 mm
75 mm
70 mm
65 mm
60 mm
55 mm
50 mm
45 mm
45 mm
40 mm
35 mm
30 mm
25 mm
20 mm
15 mm
10 mm
5 mm
0.1 mm
960 hPa
880 hPa
800 hPa
720 hPa
640 hPa
560 hPa
584 gpdm
568 gpdm
552 gpdm
536 gpdm
520 gpdm
504 gpdm
488 gpdm
Extreem zwaar Noodweer Kans op onweer
15% 15% 5% 50% 15%

Dag




Kaart






35°
30°
25°
20°
15°
10°
-5°
-10°
-15°
-20°
-25°
-30°
-35°
33> m/s
29 m/s
25 m/s
21 m/s
17 m/s
14 m/s
11 m/s
8 m/s
5 m/s
3 m/s
0 m/s
Extreem zwaar Noodweer Kans op onweer
15% 15% 5% 50% 15%
>120 mm
115 mm
110 mm
105 mm
100 mm
95 mm
90 mm
85 mm
80 mm
75 mm
70 mm
65 mm
60 mm
55 mm
50 mm
45 mm
45 mm
40 mm
35 mm
30 mm
25 mm
20 mm
15 mm
10 mm
5 mm
0.1 mm
Onweer risico kaarten - De groene en gele kleur geeft de kans op onweer aan binnen 40 km van een punt. Oranje, rood en violet hebben hetzelfde niveau zoals je het ziet op estofex.org waaronder ook de kans op hagel en supercells.

dBZ - dBZ staat voor decibel ten opzichte van Z.

Cape - Convective available potential energy (CAPE), is de totale hoeveelheid energie die een luchtpakketje nodig heeft om zover mogelijk te stijgen in de atmosfeer.

K Index - K-Index wordt berekend door de Vertical Totals (VT) en het verschil tussen de 850 hPa temperatuur en de 700 hPa dauwpuntsdepressie (Tdd 700) bij elkaar op te tellen.

TT Index - Convectie index wordt gebruikt voor het voorspellen van zware buien of onweer.

WRF - The Weather Research and Forecasting (WRF) is een volgende generatie mesoscale numeriek weersvoorspel